This is the latest recevied weather packets stored in our database for station/object VE8SKI. If no packets are shown the sender has not sent any weather packets the latest 10 day(s).
| Time | Temp. | Humidity | Pressure | Rain* | Wind** | Luminosity | Snow |
|---|---|---|---|---|---|---|---|
| 1777701683 | 0.56° C | 89% | 1017.5 hPa | 0 mm | 0.89 m/s, 15° | - | - |
| 1777701383 | 0.56° C | 88% | 1017.4 hPa | 0 mm | 0.89 m/s, 7° | - | - |
| 1777701081 | 1.11° C | 87% | 1017.4 hPa | 0 mm | 0.89 m/s, 23° | - | - |
| 1777700781 | 1.11° C | 87% | 1017.3 hPa | 0 mm | 0.45 m/s, 17° | - | - |
| 1777700482 | 1.11° C | 87% | 1017.3 hPa | 0 mm | 0.89 m/s, 7° | - | - |
| 1777700182 | 1.67° C | 87% | 1017.2 hPa | 0 mm | 0.89 m/s, 8° | - | - |
| 1777699882 | 1.67° C | 87% | 1017.2 hPa | 0 mm | 1.34 m/s, 13° | - | - |
| 1777699583 | 1.67° C | 87% | 1017.1 hPa | 0 mm | 1.34 m/s, 13° | - | - |
| 1777699280 | 1.67° C | 87% | 1017.1 hPa | 0 mm | 1.34 m/s, 6° | - | - |
| 1777698981 | 1.67° C | 87% | 1017.1 hPa | 0 mm | 1.34 m/s, 10° | - | - |
| 1777698681 | 1.11° C | 86% | 1017 hPa | 0 mm | 0.89 m/s, 14° | - | - |
| 1777698381 | 1.67° C | 84% | 1016.9 hPa | 0 mm | 0.89 m/s, 17° | - | - |
| 1777698082 | 1.67° C | 83% | 1016.9 hPa | 0 mm | 0.89 m/s, 7° | - | - |
| 1777697782 | 2.22° C | 83% | 1016.8 hPa | 0 mm | 0.89 m/s, 14° | - | - |
| 1777697479 | 2.22° C | 82% | 1016.7 hPa | 0 mm | 0.89 m/s, 10° | - | - |
| 1777697180 | 2.22° C | 82% | 1016.6 hPa | 0 mm | 0.89 m/s, 10° | - | - |
| 1777696880 | 2.78° C | 81% | 1016.6 hPa | 0 mm | 0.45 m/s, 8° | - | - |
| 1777696581 | 2.78° C | 80% | 1016.5 hPa | 0 mm | 0.89 m/s, 17° | - | - |
| 1777696281 | 3.33° C | 80% | 1016.5 hPa | 0 mm | 1.34 m/s, 21° | - | - |
| 1777695981 | 3.33° C | 79% | 1016.4 hPa | 0 mm | 1.34 m/s, 15° | - | - |
| 1777695679 | 3.33° C | 78% | 1016.3 hPa | 0 mm | 1.79 m/s, 17° | - | - |
| 1777695379 | 3.33° C | 78% | 1016.2 hPa | 0 mm | 1.79 m/s, 18° | - | - |
| 1777695080 | 3.33° C | 78% | 1016 hPa | 0 mm | 2.24 m/s, 31° | - | - |
| 1777694780 | 3.33° C | 78% | 1016 hPa | 0 mm | 1.79 m/s, 24° | - | - |
| 1777694480 | 3.33° C | 78% | 1015.9 hPa | 0 mm | 2.24 m/s, 14° | - | - |
* Rain latest hour (hover to see other rain measurements)
** Current wind speed in m/s (hover to see current wind gust speed)